FW6531 Weather Reports


time (UTC)temp
C
wind
direction
speed
KPH
gust
KPH
rain 1hr
cm
rain 24hr
cm
rain mn
cm
humidity
%
barometer
mb
20260507115528 10 321 8.0 19.3 0.00 0.79 0.25 78 1006.1
20260507115027 9 322 6.4 14.5 0.00 0.79 0.25 79 1005.9
20260507114526 9 346 4.8 12.9 0.00 0.79 0.25 81 1006.0
20260507114026 8 360 6.4 12.9 0.00 0.79 0.25 80 1005.9
20260507113528 8 309 4.8 12.9 0.00 0.79 0.25 81 1006.0
20260507113033 8 284 4.8 16.1 0.00 0.79 0.25 81 1005.9
20260507112526 8 321 6.4 12.9 0.00 0.79 0.25 82 1006.2
20260507112029 8 314 4.8 14.5 0.00 0.79 0.25 83 1006.1
20260507111524 8 309 6.4 14.5 0.00 0.79 0.25 83 1006.1
20260507111025 8 321 4.8 12.9 0.00 0.79 0.25 84 1006.1
20260507110525 8 308 3.2 12.9 0.00 0.79 0.25 84 1006.2
20260507110029 8 323 1.6 8.0 0.00 0.79 0.25 84 1006.3
20260507105523 8 311 3.2 9.7 0.00 0.79 0.25 84 1006.1
20260507105022 8 342 3.2 9.7 0.00 0.79 0.25 84 1006.0
20260507104522 8 317 3.2 8.0 0.00 0.79 0.25 84 1006.3
20260507104022 8 327 1.6 9.7 0.00 0.79 0.25 83 1006.5
20260507103520 8 323 3.2 12.9 0.00 0.79 0.25 83 1006.3
20260507103021 8 317 4.8 14.5 0.00 0.79 0.25 83 1006.3
20260507102519 8 312 6.4 14.5 0.00 0.79 0.25 84 1006.3
20260507102018 8 329 1.6 12.9 0.00 0.79 0.25 84 1006.5
20260507101527 8 332 4.8 12.9 0.00 0.79 0.25 84 1006.1
20260507101117 8 329 6.4 12.9 0.00 0.79 0.25 84 1006.2
20260507100516 8 283 3.2 8.0 0.00 0.79 0.25 85 1006.2
20260507100021 8 309 1.6 8.0 0.00 0.79 0.25 85 1006.3
20260507095516 8 279 3.2 14.5 0.00 0.79 0.25 85 1006.2
20260507095014 8 336 4.8 14.5 0.03 0.79 0.25 85 1005.8
20260507094513 8 341 3.2 12.9 0.03 0.79 0.25 84 1005.6
20260507094020 8 323 4.8 14.5 0.03 0.79 0.25 84 1005.5
20260507093512 8 306 8.0 14.5 0.03 0.79 0.25 85 1006.0
20260507093011 8 306 8.0 14.5 0.03 0.79 0.25 85 1005.8
20260507092511 8 336 6.4 12.9 0.03 0.79 0.25 85 1005.3
20260507092010 8 324 4.8 12.9 0.03 0.79 0.25 85 1005.1
20260507091512 8 355 4.8 17.7 0.03 0.79 0.25 85 1005.2
20260507091009 8 334 8.0 17.7 0.03 0.79 0.25 85 1005.5
20260507090509 8 326 6.4 16.1 0.03 0.79 0.25 84 1005.7
20260507090010 8 292 6.4 14.5 0.03 0.79 0.25 85 1005.6
20260507085506 8 317 6.4 17.7 0.03 0.79 0.25 84 1005.5
20260507085006 8 327 8.0 17.7 0.00 0.76 0.23 83 1005.5
20260507084504 8 326 6.4 19.3 0.00 0.76 0.23 83 1006.0
20260507084004 8 355 11.3 19.3 0.00 0.76 0.23 84 1005.9
20260507083503 8 329 4.8 20.9 0.00 0.76 0.23 84 1005.7
20260507083003 9 301 11.3 20.9 0.00 0.76 0.23 84 1005.6
20260507082502 9 325 9.7 19.3 0.00 0.76 0.23 85 1005.2
20260507082002 9 17 4.8 20.9 0.00 0.76 0.23 86 1005.0
20260507081501 9 300 9.7 22.5 0.00 0.76 0.23 86 1005.1
20260507081104 9 338 6.4 22.5 0.00 0.76 0.23 87 1005.0
20260507080559 9 314 6.4 17.7 0.00 0.76 0.23 88 1005.4
20260507080059 9 295 3.2 17.7 0.00 0.76 0.23 88 1005.4
20260507075557 9 283 6.4 17.7 0.00 0.76 0.23 89 1005.2
20260507075056 9 320 9.7 16.1 0.00 0.76 0.23 90 1005.2
20260507074557 9 321 9.7 19.3 0.00 0.76 0.23 90 1005.0
20260507074054 9 322 8.0 17.7 0.00 0.76 0.23 92 1004.9
20260507073554 9 259 8.0 17.7 0.00 0.76 0.23 92 1005.0
20260507073103 9 342 4.8 16.1 0.00 0.76 0.23 92 1005.1
20260507072553 9 316 6.4 16.1 0.00 0.76 0.23 93 1005.0
20260507072053 9 324 8.0 16.1 0.00 0.76 0.23 93 1004.7
20260507071551 9 284 4.8 14.5 0.00 0.76 0.23 93 1004.7
20260507071051 9 325 6.4 14.5 0.00 0.76 0.23 94 1004.7
20260507070552 9 315 4.8 12.9 0.00 0.76 0.23 94 1004.9
20260507070057 9 312 4.8 8.0 0.00 0.76 0.23 94 1004.6
20260507065549 10 303 3.2 8.0 0.00 0.76 0.23 94 1004.7
20260507065048 10 319 1.6 4.8 0.00 0.76 0.23 94 1004.8
20260507064553 10 319 0.0 4.8 0.00 0.76 0.23 94 1004.9
20260507064047 10 319 1.6 6.4 0.00 0.76 0.23 94 1004.2
20260507063547 10 313 1.6 6.4 0.00 0.76 0.23 94 1004.2
20260507063046 10 303 0.0 6.4 0.00 0.76 0.23 94 1004.4
20260507062546 10 301 1.6 6.4 0.00 0.76 0.23 94 1004.4
20260507062045 10 315 1.6 12.9 0.00 0.76 0.23 94 1004.0
20260507061545 10 329 1.6 12.9 0.00 0.76 0.23 94 1003.9
20260507061044 10 313 3.2 12.9 0.03 0.76 0.23 94 1004.1
20260507060545 10 296 4.8 12.9 0.03 0.76 0.23 94 1004.0
20260507060053 10 350 6.4 16.1 0.03 0.76 0.23 95 1004.1
20260507055543 10 315 6.4 16.1 0.03 0.76 0.23 95 1004.1
20260507055042 10 23 6.4 16.1 0.03 0.76 0.23 95 1003.7
20260507054543 10 355 4.8 20.9 0.03 0.76 0.23 95 1003.8
20260507054041 10 12 8.0 20.9 0.03 0.76 0.23 95 1004.0
20260507053541 10 298 3.2 16.1 0.03 0.76 0.23 95 1004.2
20260507053040 10 319 6.4 17.7 0.05 0.76 0.23 96 1004.1
20260507052540 10 319 8.0 20.9 0.13 0.76 0.23 96 1004.1
20260507052037 10 30 11.3 22.5 0.15 0.76 0.23 96 1004.0
20260507051537 11 348 9.7 22.5 0.18 0.76 0.23 96 1003.7
20260507051035 11 335 4.8 14.5 0.20 0.71 0.20 96 1004.0
20260507050535 11 340 4.8 19.3 0.20 0.71 0.20 96 1003.9
20260507050036 11 298 9.7 19.3 0.20 0.71 0.20 97 1004.0
20260507045535 11 315 8.0 17.7 0.20 0.71 0.20 97 1003.7
20260507045033 11 311 3.2 14.5 0.23 0.71 0.20 96 1003.8
20260507044532 11 316 3.2 8.0 0.23 0.71 0.20 96 1003.6
20260507044035 11 312 3.2 8.0 0.23 0.71 0.20 96 1003.5
20260507043533 11 341 3.2 8.0 0.23 0.71 0.20 96 1003.4
20260507043032 11 296 3.2 27.4 0.18 0.69 0.15 96 1003.5
20260507042531 11 334 12.9 27.4 0.13 0.64 0.10 97 1003.9
20260507042033 11 261 4.8 9.7 0.10 0.61 0.08 97 1003.5
20260507041529 11 247 4.8 9.7 0.08 0.58 0.05 97 1003.3
20260507041029 10 277 4.8 11.3 0.03 0.53 0.00 96 1003.6
20260507040527 10 236 4.8 11.3 0.03 0.53 0.00 96 1003.4
20260507040025 10 208 4.8 11.3 0.03 0.53 0.53 96 1003.2
20260507035531 10 192 3.2 11.3 0.03 0.53 0.53 96 1003.1
20260507035026 10 217 4.8 17.7 0.00 0.51 0.51 96 1003.0
20260507034524 10 158 6.4 17.7 0.00 0.51 0.51 96 1003.0
20260507034027 10 231 4.8 12.9 0.00 0.51 0.51 96 1003.1
20260507033524 10 164 4.8 9.7 0.03 0.51 0.51 96 1003.0
20260507033030 10 169 3.2 9.7 0.03 0.51 0.51 96 1003.0
20260507032523 10 217 3.2 11.3 0.03 0.51 0.51 96 1003.2
20260507032029 10 160 1.6 9.7 0.03 0.51 0.51 96 1003.1
20260507031529 10 260 3.2 11.3 0.03 0.51 0.51 96 1003.1
20260507031023 10 192 3.2 9.7 0.03 0.51 0.51 96 1003.1
20260507030522 10 162 3.2 12.9 0.03 0.51 0.51 96 1003.0
20260507030022 10 175 4.8 16.1 0.03 0.51 0.51 96 1003.3
20260507025521 10 183 8.0 16.1 0.03 0.51 0.51 96 1003.1
20260507025025 10 180 8.0 17.7 0.03 0.51 0.51 96 1003.2
20260507024522 10 173 6.4 22.5 0.03 0.51 0.51 96 1003.2
20260507024121 10 175 8.0 20.9 0.03 0.51 0.51 96 1003.1
20260507023519 10 163 4.8 17.7 0.00 0.48 0.48 96 1003.2
20260507023020 10 179 6.4 22.5 0.00 0.48 0.48 96 1003.3
20260507022520 10 150 8.0 20.9 0.00 0.48 0.48 96 1003.4
20260507022019 10 249 11.3 24.1 0.03 0.48 0.48 96 1003.5
20260507021518 10 182 9.7 24.1 0.03 0.48 0.48 96 1003.5
20260507021017 10 200 12.9 22.5 0.05 0.48 0.48 96 1003.5
20260507020517 10 207 11.3 24.1 0.05 0.48 0.48 96 1003.6
20260507020021 10 212 9.7 30.6 0.05 0.48 0.48 96 1003.6
20260507015515 10 158 12.9 30.6 0.05 0.48 0.48 96 1003.7
20260507015014 10 203 11.3 29.0 0.05 0.48 0.48 96 1003.8
20260507014513 10 176 12.9 29.0 0.05 0.48 0.48 96 1003.8
20260507014013 10 201 9.7 22.5 0.05 0.48 0.48 96 1004.0
20260507013513 10 200 11.3 22.5 0.05 0.48 0.48 96 1003.9
20260507013016 10 173 9.7 32.2 0.08 0.48 0.48 95 1003.8
20260507012513 10 157 12.9 32.2 0.08 0.48 0.48 95 1003.8
20260507012011 10 234 11.3 25.7 0.05 0.46 0.46 95 1003.9
20260507011524 10 233 11.3 20.9 0.05 0.46 0.46 95 1004.1
20260507011009 9 186 8.0 30.6 0.03 0.43 0.43 95 1004.0
20260507010510 10 172 8.0 30.6 0.03 0.43 0.43 95 1004.0
20260507010009 10 243 8.0 30.6 0.03 0.43 0.43 95 1003.9
20260507005508 10 138 9.7 25.7 0.03 0.43 0.43 95 1003.9
20260507005010 10 238 9.7 25.7 0.03 0.43 0.43 95 1004.0
20260507004507 10 153 11.3 29.0 0.03 0.43 0.43 95 1003.9
20260507004007 10 112 11.3 25.7 0.03 0.43 0.43 95 1004.0
20260507003506 10 170 9.7 25.7 0.03 0.43 0.43 95 1004.1
20260507003005 10 145 11.3 22.5 0.00 0.41 0.41 95 1004.0
20260507002505 10 180 11.3 27.4 0.00 0.41 0.41 95 1004.0
20260507002003 10 171 11.3 27.4 0.00 0.41 0.41 95 1004.2
20260507001502 10 169 8.0 24.1 0.00 0.41 0.41 95 1004.3
20260507001004 10 205 9.7 24.1 0.00 0.41 0.41 95 1004.3
20260507000501 10 124 8.0 29.0 0.00 0.41 0.41 95 1004.2
20260507000059 10 194 12.9 29.0 0.00 0.41 0.41 95 1004.3
20260506235559 10 156 11.3 24.1 0.00 0.41 0.41 95 1004.2
20260506235100 10 180 12.9 29.0 0.00 0.41 0.41 95 1004.3
20260506234607 10 164 12.9 29.0 0.00 0.41 0.41 95 1004.3
20260506234058 10 122 11.3 27.4 0.00 0.41 0.41 95 1004.2
20260506233557 10 214 9.7 29.0 0.00 0.41 0.41 95 1004.2
20260506233058 10 175 12.9 29.0 0.00 0.41 0.41 95 1004.4
20260506232556 10 182 12.9 29.0 0.00 0.41 0.41 95 1004.4
20260506232058 10 203 9.7 32.2 0.00 0.41 0.41 95 1004.6
20260506231556 10 169 8.0 25.7 0.00 0.41 0.41 94 1004.7
20260506231054 10 182 12.9 25.7 0.00 0.41 0.41 94 1004.6
20260506230553 10 209 9.7 25.7 0.00 0.41 0.41 95 1004.6
20260506230059 10 194 8.0 25.7 0.00 0.41 0.41 95 1004.6
20260506225552 10 141 9.7 25.7 0.00 0.41 0.41 95 1004.6
20260506225051 10 155 8.0 25.7 0.03 0.41 0.41 94 1004.6
20260506224551 10 127 11.3 29.0 0.03 0.41 0.41 94 1004.9
20260506224050 10 182 8.0 29.0 0.03 0.41 0.41 94 1004.8
20260506223550 10 171 9.7 30.6 0.03 0.41 0.41 94 1004.8
20260506223050 10 169 9.7 25.7 0.05 0.41 0.41 94 1004.8
20260506222552 10 209 8.0 38.6 0.08 0.41 0.41 94 1004.9
20260506222049 10 209 14.5 38.6 0.08 0.41 0.41 94 1004.9
20260506221548 10 200 11.3 30.6 0.10 0.41 0.41 94 1005.0
20260506221050 10 111 12.9 30.6 0.13 0.41 0.41 94 1004.9
20260506220547 10 176 11.3 30.6 0.13 0.41 0.41 94 1005.1
20260506220048 10 196 9.7 30.6 0.15 0.41 0.41 94 1005.1
20260506215545 10 156 8.0 30.6 0.15 0.41 0.41 94 1005.1
20260506215043 10 223 9.7 33.8 0.13 0.38 0.38 93 1005.2
20260506214547 10 202 12.9 25.7 0.15 0.38 0.38 93 1005.1
20260506214043 10 150 11.3 22.5 0.15 0.38 0.38 93 1005.2
20260506213541 10 182 6.4 25.7 0.13 0.36 0.36 93 1005.2
20260506213043 10 143 4.8 25.7 0.15 0.36 0.36 93 1005.4
20260506212541 10 183 9.7 25.7 0.13 0.33 0.33 93 1005.5
20260506212042 10 196 9.7 25.7 0.13 0.33 0.33 93 1005.7
20260506211541 10 117 9.7 22.5 0.10 0.30 0.30 93 1005.6
20260506211041 10 104 8.0 19.3 0.10 0.28 0.28 93 1005.6
20260506210542 10 140 6.4 30.6 0.13 0.28 0.28 92 1005.5
20260506210038 10 142 12.9 30.6 0.10 0.25 0.25 93 1005.5
20260506205538 10 250 9.7 29.0 0.10 0.25 0.25 92 1005.6
20260506205039 10 194 6.4 25.7 0.10 0.25 0.25 92 1005.6
20260506204542 11 176 9.7 19.3 0.10 0.23 0.23 92 1005.4
20260506204040 11 221 9.7 24.1 0.13 0.23 0.23 92 1005.6
20260506203538 11 186 9.7 27.4 0.15 0.23 0.23 92 1005.7
20260506203041 11 188 11.3 27.4 0.13 0.20 0.20 92 1005.5
20260506202537 11 180 9.7 25.7 0.13 0.20 0.20 92 1005.5
20260506202038 11 155 8.0 17.7 0.15 0.20 0.20 92 1005.4
20260506201540 11 193 6.4 20.9 0.18 0.20 0.20 92 1005.5
20260506201035 11 159 11.3 20.9 0.15 0.15 0.15 92 1006.0
20260506200539 11 90 9.7 16.1 0.15 0.15 0.15 92 1005.8
20260506200040 11 178 8.0 19.3 0.15 0.15 0.15 91 1005.8
20260506195536 11 208 8.0 19.3 0.15 0.15 0.15 92 1006.1
20260506195034 11 147 9.7 22.5 0.15 0.15 0.15 92 1006.1
20260506194535 11 150 8.0 24.1 0.13 0.13 0.13 92 1006.2
20260506194034 11 153 6.4 20.9 0.10 0.10 0.10 91 1006.3
20260506193534 11 137 9.7 20.9 0.08 0.08 0.08 91 1006.3
20260506193034 11 182 8.0 19.3 0.08 0.08 0.08 91 1006.2
20260506192533 11 171 3.2 19.3 0.08 0.08 0.08 90 1006.3
20260506192034 11 169 4.8 19.3 0.05 0.05 0.05 90 1006.1
20260506191534 11 222 6.4 20.9 0.03 0.03 0.03 89 1006.3
20260506191034 11 189 6.4 20.9 0.00 0.00 0.00 89 1006.3
20260506190533 11 234 6.4 24.1 0.00 0.00 0.00 89 1006.3
20260506190037 11 210 12.9 29.0 0.00 0.00 0.00 89 1005.9
20260506185533 11 190 12.9 29.0 0.00 0.00 0.00 88 1005.7
20260506185031 11 111 9.7 22.5 0.00 0.00 0.00 88 1005.7
20260506184538 11 248 12.9 30.6 0.00 0.00 0.00 88 1005.5
20260506184032 11 167 11.3 30.6 0.00 0.00 0.00 88 1005.6
20260506183533 11 159 12.9 30.6 0.00 0.00 0.00 87 1005.7
20260506183029 11 141 8.0 25.7 0.00 0.00 0.00 87 1005.8
20260506182529 11 242 9.7 20.9 0.00 0.00 0.00 87 1005.8
20260506182028 11 171 8.0 29.0 0.00 0.00 0.00 87 1005.8
20260506181528 11 187 9.7 29.0 0.00 0.00 0.00 87 1006.0
20260506181029 11 178 12.9 22.5 0.00 0.00 0.00 86 1006.1
20260506180529 11 165 6.4 25.7 0.00 0.00 0.00 86 1006.0
20260506180029 11 163 11.3 25.7 0.00 0.00 0.00 86 1006.0
20260506175526 11 192 6.4 24.1 0.00 0.00 0.00 86 1006.1
20260506175026 11 183 11.3 24.1 0.00 0.00 0.00 86 1006.1
20260506174526 11 209 8.0 24.1 0.00 0.00 0.00 86 1006.1
20260506174028 11 161 8.0 24.1 0.00 0.00 0.00 86 1006.2
20260506173525 11 144 9.7 24.1 0.00 0.00 0.00 87 1006.3
20260506173031 11 232 8.0 24.1 0.00 0.00 0.00 86 1006.4
20260506172523 11 145 9.7 24.1 0.00 0.00 0.00 86 1006.6
20260506172023 11 113 11.3 24.1 0.00 0.00 0.00 86 1006.6
20260506171526 11 156 8.0 24.1 0.00 0.00 0.00 86 1006.6
20260506171024 11 157 8.0 24.1 0.00 0.00 0.00 86 1006.7
20260506170522 11 144 9.7 20.9 0.00 0.00 0.00 85 1006.8
20260506170021 11 175 9.7 24.1 0.00 0.00 0.00 85 1007.0
20260506165520 11 153 11.3 25.7 0.00 0.00 0.00 85 1007.0
20260506165020 12 184 14.5 29.0 0.00 0.00 0.00 84 1007.0
20260506164520 12 92 11.3 24.1 0.00 0.00 0.00 84 1007.3
20260506164019 12 139 11.3 30.6 0.00 0.00 0.00 84 1007.3
20260506163521 12 155 12.9 24.1 0.00 0.00 0.00 84 1007.5
20260506163027 12 192 11.3 29.0 0.00 0.00 0.00 84 1007.5
20260506162521 12 173 8.0 29.0 0.00 0.00 0.00 84 1007.8
20260506162020 12 163 12.9 33.8 0.00 0.00 0.00 84 1007.9
20260506161519 12 192 9.7 33.8 0.00 0.00 0.00 84 1008.1
20260506161018 12 165 14.5 27.4 0.00 0.00 0.00 84 1008.0
20260506160519 12 151 9.7 29.0 0.00 0.00 0.00 84 1008.1
20260506160017 12 175 12.9 29.0 0.00 0.00 0.00 84 1008.3
20260506155517 12 172 6.4 32.2 0.00 0.00 0.00 85 1008.4
20260506155017 12 161 6.4 29.0 0.00 0.00 0.00 85 1008.4
20260506154517 12 164 12.9 29.0 0.00 0.00 0.00 85 1008.2
20260506154018 12 143 11.3 24.1 0.00 0.00 0.00 86 1008.3
20260506153516 12 184 14.5 32.2 0.00 0.00 0.00 85 1008.3
20260506153015 12 206 12.9 32.2 0.00 0.00 0.00 85 1008.5
20260506152515 12 184 9.7 30.6 0.00 0.00 0.00 85 1008.5
20260506152015 12 184 12.9 30.6 0.00 0.00 0.00 85 1008.4
20260506151617 12 221 11.3 30.6 0.00 0.00 0.00 84 1008.2
20260506151018 12 212 8.0 30.6 0.00 0.00 0.00 84 1008.5
20260506150514 12 177 12.9 33.8 0.00 0.00 0.00 83 1008.3
20260506150014 13 160 14.5 37.0 0.00 0.00 0.00 83 1008.1
20260506145514 13 186 12.9 37.0 0.00 0.00 0.00 84 1008.2
20260506145013 13 190 9.7 25.7 0.00 0.00 0.00 84 1007.9
20260506144512 12 194 11.3 32.2 0.00 0.00 0.00 84 1008.0
20260506144011 12 178 16.1 32.2 0.00 0.00 0.00 84 1007.7
20260506143511 12 155 12.9 29.0 0.00 0.00 0.00 84 1007.9
20260506143021 12 181 14.5 24.1 0.00 0.00 0.00 85 1008.0
20260506142514 12 134 11.3 22.5 0.00 0.00 0.00 85 1008.2
20260506142010 12 157 8.0 24.1 0.00 0.00 0.00 85 1008.2
20260506141509 12 215 9.7 27.4 0.00 0.00 0.00 85 1008.3
20260506141014 12 134 8.0 24.1 0.00 0.00 0.00 86 1008.4
20260506140510 12 182 11.3 24.1 0.00 0.00 0.00 86 1008.5
20260506140009 12 212 11.3 24.1 0.00 0.00 0.00 86 1008.6
20260506135509 12 145 12.9 19.3 0.00 0.00 0.00 86 1008.6
20260506135009 12 213 8.0 20.9 0.00 0.00 0.00 86 1008.5
20260506134508 12 244 12.9 20.9 0.00 0.00 0.00 86 1008.5
20260506134011 12 164 8.0 19.3 0.00 0.00 0.00 86 1008.5
20260506133511 12 273 6.4 20.9 0.00 0.00 0.00 85 1008.5
20260506133007 12 155 8.0 22.5 0.00 0.00 0.00 85 1008.5
20260506132513 12 135 8.0 24.1 0.00 0.00 0.00 86 1008.5
20260506132007 12 176 9.7 24.1 0.00 0.00 0.00 85 1008.5
20260506131507 12 250 4.8 24.1 0.00 0.00 0.00 85 1008.4
20260506131007 12 221 8.0 22.5 0.00 0.00 0.00 84 1008.4
20260506130507 12 167 8.0 22.5 0.00 0.00 0.00 84 1008.4
20260506130007 12 172 4.8 22.5 0.00 0.00 0.00 84 1008.5
20260506125506 12 233 6.4 22.5 0.00 0.00 0.00 84 1008.3
20260506125009 12 219 9.7 27.4 0.00 0.00 0.00 84 1008.3
20260506124505 12 288 4.8 27.4 0.00 0.00 0.00 85 1008.4
20260506124005 12 211 9.7 24.1 0.00 0.00 0.00 84 1008.4
20260506123505 12 190 6.4 20.9 0.00 0.00 0.00 85 1008.4
20260506123004 12 187 3.2 20.9 0.00 0.00 0.00 85 1008.6
20260506122504 12 209 8.0 14.5 0.00 0.00 0.00 86 1008.6
20260506122003 12 136 8.0 14.5 0.00 0.00 0.00 86 1008.6
20260506121502 12 167 6.4 17.7 0.00 0.00 0.00 86 1008.6
20260506121002 12 205 8.0 16.1 0.00 0.00 0.00 86 1008.7
20260506120502 12 186 9.7 17.7 0.00 0.00 0.00 86 1008.5
20260506120109 12 217 8.0 16.1 0.00 0.00 0.00 86 1008.6